Weather History for Langdon, ND

Change the Weather History Date:

Wednesday, November 14, 2012

  Actual Average (KDVL) Record (KDVL)
Temperature  
Mean Temperature 17 °F -  
Max Temperature 26 °F 34 °F 65 °F (1953)
Min Temperature 8 °F 19 °F -7 °F (1959)
Degree Days  
Heating Degree Days 48    
Moisture  
Dew Point 20 °F    
Average Humidity 98    
Maximum Humidity 100    
Minimum Humidity 79    
Precipitation  
Precipitation 0.00 in - - ()
Sea Level Pressure  
Sea Level Pressure 30.03 in    
Wind  
Wind Speed 8 mph (SSW)    
Max Wind Speed 15 mph    
Max Gust Speed -    
Visibility 6 miles    
Events Fog    
Averages and records for this station are not official NWS values.
T = Trace of Precipitation, MM = Missing Value Source: NWS Daily Summary

Daily Weather History Graph

Daily Weather History Graph

Search for Another Location

Airport:

Trip Planner

Search our weather history database for the weather conditions in past years. The results will help you decide how hot, cold, wet, or windy it might be!

Date:

Astronomy

Nov. 14, 2012 Rise Set
Actual Time 7:41 AM CST 4:54 PM CST
Civil Twilight 7:07 AM CST 5:28 PM CST
Nautical Twilight 6:28 AM CST 6:06 PM CST
Astronomical Twilight 5:51 AM CST 6:43 PM CST
Moon 8:37 AM CST (11/14) 5:38 PM CST (11/14)
Length of Visible Light 10h 21m
Length of Day
9h 12m
New Moon, 1% of the Moon is Illuminated
Nov 14
New Moon
Nov 20
First Quarter
Nov 28
Full
Dec 6
Last Quarter
Dec 13
New

Hourly Weather History & Observations

Time (CST) Temp. Windchill Dew Point Humidity Pressure Visibility Wind Dir Wind Speed Gust Speed Precip Events Conditions
12:15 AM 8.6 °F -2.6 °F 6.8 °F 92% 30.16 in 10.0 mi ESE 6.9 mph - N/A   Clear
12:35 AM 8.6 °F -1.3 °F 6.8 °F 92% 30.16 in 10.0 mi ESE 5.8 mph - N/A   Mostly Cloudy
12:55 AM 8.6 °F 0.1 °F 6.8 °F 92% 30.16 in 10.0 mi ESE 4.6 mph - N/A   Overcast
1:15 AM 10.4 °F -1.5 °F 8.6 °F 92% 30.15 in 10.0 mi SE 8.1 mph - N/A   Overcast
1:35 AM 14.0 °F 3.9 °F 10.4 °F 86% 30.14 in 10.0 mi SE 6.9 mph - N/A   Overcast
1:55 AM 15.8 °F 7.2 °F 10.4 °F 79% 30.15 in 10.0 mi SSE 5.8 mph - N/A   Overcast
2:15 AM 15.8 °F 5.1 °F 10.4 °F 79% 30.15 in 10.0 mi SSE 8.1 mph - N/A   Overcast
2:35 AM 14.0 °F 2.0 °F 10.4 °F 86% 30.14 in 10.0 mi SSE 9.2 mph - N/A   Overcast
2:55 AM 14.0 °F 3.9 °F 10.4 °F 86% 30.14 in 10.0 mi SSE 6.9 mph - N/A   Mostly Cloudy
3:15 AM 12.2 °F 2.9 °F 8.6 °F 85% 30.14 in 10.0 mi South 5.8 mph - N/A   Mostly Cloudy
3:35 AM 12.2 °F 1.7 °F 10.4 °F 92% 30.14 in 9.0 mi South 6.9 mph - N/A   Mostly Cloudy
3:55 AM 14.0 °F 5.1 °F 14.0 °F 100% 30.13 in 0.5 mi SSE 5.8 mph - N/A Fog Light Freezing Fog
4:15 AM 15.8 °F 7.2 °F 15.8 °F 100% 30.13 in 0.2 mi South 5.8 mph - N/A Fog Light Freezing Fog
4:35 AM 15.8 °F 4.2 °F 15.8 °F 100% 30.13 in 0.2 mi South 9.2 mph - N/A Fog Light Freezing Fog
4:55 AM 17.6 °F 5.7 °F 17.6 °F 100% 30.11 in 0.2 mi South 10.4 mph - N/A Fog Light Freezing Fog
5:15 AM 17.6 °F 6.4 °F 17.6 °F 100% 30.11 in 0.2 mi South 9.2 mph - N/A Fog Light Freezing Fog
5:35 AM 17.6 °F 5.0 °F 17.6 °F 100% 30.11 in 0.2 mi South 11.5 mph - N/A Fog Light Freezing Fog
5:55 AM 19.4 °F 6.6 °F 19.4 °F 100% 30.10 in 5.0 mi South 12.7 mph - N/A   Overcast
6:15 AM 17.6 °F 5.7 °F 17.6 °F 100% 30.09 in 5.0 mi South 10.4 mph - N/A   Overcast
6:35 AM 17.6 °F 5.7 °F 17.6 °F 100% 30.09 in 6.0 mi South 10.4 mph - N/A   Overcast
6:55 AM 15.8 °F 6.1 °F 15.8 °F 100% 30.09 in 8.0 mi South 6.9 mph - N/A   Overcast
7:15 AM 15.8 °F 6.1 °F 15.8 °F 100% 30.09 in 2.5 mi South 6.9 mph - N/A   Overcast
7:35 AM 15.8 °F 6.1 °F 15.8 °F 100% 30.08 in 0.2 mi South 6.9 mph - N/A Fog Light Freezing Fog
7:55 AM 15.8 °F 7.2 °F 15.8 °F 100% 30.08 in 0.2 mi SSE 5.8 mph - N/A Fog Light Freezing Fog
8:15 AM 15.8 °F 7.2 °F 15.8 °F 100% 30.07 in 0.2 mi South 5.8 mph - N/A Fog Light Freezing Fog
8:35 AM 15.8 °F 6.1 °F 15.8 °F 100% 30.07 in 0.2 mi South 6.9 mph - N/A Fog Light Freezing Fog
8:55 AM 15.8 °F 4.2 °F 15.8 °F 100% 30.07 in 0.2 mi South 9.2 mph - N/A Fog Light Freezing Fog
9:15 AM 15.8 °F 6.1 °F 15.8 °F 100% 30.06 in 0.2 mi South 6.9 mph - N/A Fog Light Freezing Fog
9:35 AM 17.6 °F 8.2 °F 17.6 °F 100% 30.06 in 0.2 mi South 6.9 mph - N/A Fog Light Freezing Fog
9:55 AM 17.6 °F 5.7 °F 17.6 °F 100% 30.06 in 0.2 mi South 10.4 mph - N/A Fog Light Freezing Fog
10:15 AM 19.4 °F 7.2 °F 19.4 °F 100% 30.05 in 0.2 mi South 11.5 mph - N/A Fog Light Freezing Fog
10:35 AM 21.2 °F 9.5 °F 21.2 °F 100% 30.05 in 0.2 mi SSW 11.5 mph - N/A Fog Light Freezing Fog
10:55 AM 21.2 °F 8.3 °F 21.2 °F 100% 30.05 in 0.2 mi SSW 13.8 mph - N/A Fog Light Freezing Fog
11:15 AM 23.0 °F 17.0 °F 23.0 °F 100% 30.04 in 0.2 mi North 4.6 mph - N/A Fog Light Freezing Fog
11:35 AM 23.0 °F 17.0 °F 23.0 °F 100% 30.03 in 0.2 mi North 4.6 mph - N/A Fog Light Freezing Fog
11:55 AM 23.0 °F 10.1 °F 23.0 °F 100% 30.02 in 0.2 mi SSW 15.0 mph - N/A Fog Light Freezing Fog
12:15 PM 23.0 °F 10.6 °F 23.0 °F 100% 30.01 in 0.2 mi SSW 13.8 mph - N/A Fog Light Freezing Fog
12:35 PM 23.0 °F 17.0 °F 23.0 °F 100% 30.00 in 0.2 mi North 4.6 mph - N/A Fog Light Freezing Fog
12:55 PM 24.8 °F 19.1 °F 24.8 °F 100% 29.99 in 0.2 mi North 4.6 mph - N/A Fog Light Freezing Fog
1:15 PM 24.8 °F 19.1 °F 24.8 °F 100% 29.99 in 0.2 mi North 4.6 mph - N/A Fog Light Freezing Fog
1:35 PM 24.8 °F 19.1 °F 24.8 °F 100% 29.98 in 0.2 mi North 4.6 mph - N/A Fog Light Freezing Fog
1:55 PM 24.8 °F 19.1 °F 24.8 °F 100% 29.98 in 0.2 mi North 4.6 mph - N/A Fog Light Freezing Fog
2:15 PM 24.8 °F 19.1 °F 24.8 °F 100% 29.97 in 0.5 mi North 4.6 mph - N/A Fog Light Freezing Fog
2:35 PM 24.8 °F 15.3 °F 24.8 °F 100% 29.96 in 2.5 mi SSW 9.2 mph - N/A   Overcast
2:55 PM 24.8 °F 16.1 °F 24.8 °F 100% 29.96 in 3.0 mi SSW 8.1 mph - N/A   Mostly Cloudy
3:15 PM 24.8 °F 16.9 °F 24.8 °F 100% 29.96 in 5.0 mi SSW 6.9 mph - N/A   Partly Cloudy
3:35 PM 24.8 °F 16.1 °F 24.8 °F 100% 29.95 in 7.0 mi SSW 8.1 mph - N/A   Clear
3:55 PM 24.8 °F 14.6 °F 24.8 °F 100% 29.95 in 8.0 mi SSW 10.4 mph - N/A   Clear
4:15 PM 26.6 °F 16.8 °F 26.6 °F 100% 29.95 in 9.0 mi SSW 10.4 mph - N/A   Mostly Cloudy
4:35 PM 26.6 °F 16.8 °F 26.6 °F 100% 29.94 in 10.0 mi SSW 10.4 mph - N/A   Scattered Clouds
4:55 PM 26.6 °F 16.2 °F 26.6 °F 100% 29.94 in 9.0 mi SSW 11.5 mph - N/A   Scattered Clouds
5:15 PM 26.6 °F 15.2 °F 26.6 °F 100% 29.94 in 10.0 mi SSW 13.8 mph - N/A   Mostly Cloudy
5:35 PM 26.6 °F 16.2 °F 26.6 °F 100% 29.93 in 10.0 mi SSW 11.5 mph - N/A   Mostly Cloudy
5:55 PM 24.8 °F 14.0 °F 24.8 °F 100% 29.93 in 10.0 mi SSW 11.5 mph - N/A   Partly Cloudy
6:15 PM 24.8 °F 14.6 °F 24.8 °F 100% 29.94 in 10.0 mi SSW 10.4 mph - N/A   Clear
6:35 PM 24.8 °F 14.0 °F 24.8 °F 100% 29.93 in 10.0 mi SSW 11.5 mph - N/A   Clear
6:55 PM 24.8 °F 13.4 °F 24.8 °F 100% 29.93 in 10.0 mi SSW 12.7 mph - N/A   Clear
7:15 PM 24.8 °F 14.0 °F 24.8 °F 100% 29.93 in 10.0 mi SSW 11.5 mph - N/A   Clear
7:35 PM 23.0 °F 13.1 °F 23.0 °F 100% 29.94 in 10.0 mi SW 9.2 mph - N/A   Partly Cloudy
7:55 PM 23.0 °F 12.4 °F 23.0 °F 100% 29.94 in 10.0 mi SW 10.4 mph - N/A   Scattered Clouds
8:15 PM 23.0 °F 11.7 °F 23.0 °F 100% 29.94 in 10.0 mi SW 11.5 mph - N/A   Clear
8:35 PM 23.0 °F 11.7 °F 23.0 °F 100% 29.93 in 10.0 mi SW 11.5 mph - N/A   Clear
8:55 PM 23.0 °F 12.4 °F 23.0 °F 100% 29.93 in 10.0 mi SW 10.4 mph - N/A   Clear
9:15 PM 23.0 °F 11.1 °F 23.0 °F 100% 29.93 in 10.0 mi SW 12.7 mph - N/A   Clear
9:35 PM 24.8 °F 14.0 °F 24.8 °F 100% 29.93 in 10.0 mi SW 11.5 mph - N/A   Clear
9:55 PM 23.0 °F 12.4 °F 23.0 °F 100% 29.95 in 10.0 mi West 10.4 mph - N/A   Clear
10:15 PM 23.0 °F 11.7 °F 23.0 °F 100% 29.94 in 10.0 mi WSW 11.5 mph - N/A   Clear
10:35 PM 23.0 °F 11.7 °F 23.0 °F 100% 29.94 in 10.0 mi WSW 11.5 mph - N/A   Clear
10:55 PM 23.0 °F 10.6 °F 23.0 °F 100% 29.95 in 10.0 mi West 13.8 mph - N/A   Clear
11:15 PM 24.8 °F 12.9 °F 24.8 °F 100% 29.95 in 10.0 mi West 13.8 mph - N/A   Clear
11:35 PM 24.8 °F 12.4 °F 24.8 °F 100% 29.96 in 10.0 mi West 15.0 mph - N/A   Clear
11:55 PM 23.0 °F 10.6 °F 23.0 °F 100% 29.97 in 10.0 mi West 13.8 mph - N/A   Clear